FENGYUN 1C DEB

Satellite information

Favourite Embed

Satellite Type and Status

DEBRISIN ORBIT

Key statistics

Satellite FENGYUN 1C DEB at a glance.

Uptime

9496

Days in orbit

Revolutions

≈ 14.3

Per day

Orbit

SSO

Sun Synchronous Orbit

Inclination

99.4

Latest

Satellite identification and parameters

Extended collection of information and parameters for FENGYUN 1C DEB.

Object identification

Identified? True

Debris? True

Object name: FENGYUN 1C DEB

International designator: 1999-025YZ

Object number (NORAD): 30288

Object ID (CCSDS): 30288

Country: PEOPLES REPUBLIC OF CHINA (PRC)

Current information (Y/N): Y

RCS size: SMALL

Orbital parameters

Period: 100.667 minutes

Inclination: 99.4017 deg

SMA: 7168.352 km

Apoapsis: 806.416 km

Periapsis: 774.019 km

RAAN: 192.593 deg

Eccentricy: 0.0022597

Argument of periapsis: 226.6846 deg

Mean anomaly: 257.338 deg

Mean motion: 14.30453471 rev/day

Mean motion (dot): 0.00004362 rev/day2

B* drag term: 0.0016899 1/REarth

Two-line elements (TLE)

Creation date: May 9, 2025, 2:46 a.m.

Reference frame: TEME

Reference center: EARTH

Epoch: May 8, 2025, 5:18 p.m. UTC

TLE line 0: 0 FENGYUN 1C DEB

TLE line 1: 1 30288U 99025YZ 25128.72125230 .00004362 00000-0 16899-2 0 9996

TLE line 2: 2 30288 99.4017 192.5930 0022597 226.6846 257.3380 14.30453471944503

Live tracking on map

Real-time ground track for satellite FENGYUN 1C DEB.

In-orbit conjunctions

A list of the most updated potential collisions computed for object FENGYUN 1C DEB.

Target Orbit TCA Probability of collision Miss distance Type
CZ-6A DEB LEO 2024-11-17 18:57:49 0.0001010992 922.0 (m) DEBRIS
NOAA 16 DEB SSO 2024-11-12 01:06:25 0.0001335563 813.0 (m) DEBRIS
THOR ABLESTAR DEB LEO 2024-07-11 07:18:02 0.0001003481 171.0 (m) DEBRIS

Associated space launch

Chinese polar orbiting meteorological satellite

FENGYUN 1C DEB was lifted into orbit during the mission ‘Long March 4B | Feng Yun 1C’, on board a Long March 4B space rocket.

The launch took place on May 10, 1999, 1:33 a.m. from Launch Complex 7.

For more information about the launch, click the button.

Launch to space Long March 4B | Feng Yun 1C
Long March 4B | Feng Yun 1C

Agency: N/A

Status: Launch Successful

Launch date: May 10, 1999, 1:33 a.m. UTC

Rocket: Long March 4B

Launch pad: Launch Complex 7

Location: Taiyuan Satellite Launch Center, People's Republic of China

...

Latest news about this satellite

There are no fresh news available about this satellite. Check back as we update our databases every day.


Newsletter sign-up

Weekly statistics, charts and insights to help you stay on top of the space industry.